1322614231854,0.000159270
1322614291854,0.000158106
1322614351854,0.000158306
1322614411854,0.000159273
1322614471854,0.000156249
1322617831864,0.000159608
1322617891864,0.000159041
1322617951864,0.000160081
1322618011864,0.000160480
1322618071864,0.000163989
1322621431874,0.000156597
1322621491874,0.000157088
1322621551874,0.000157603
1322621611874,0.000158112
1322621671874,0.000154357
1322625031884,0.000158956
1322625091884,0.000159180
1322625151884,0.000159697
1322625211884,0.000157577
1322625271884,0.000154958
1322628631894,0.000158927
1322628691894,0.000158318
1322628751894,0.000161210
1322628811894,0.000159319
1322628871894,0.000157948
1322632231904,0.000159317
1322632291904,0.000159331
1322632351904,0.000159942
1322632411904,0.000160219
1322632471904,0.000157304
1322635831914,0.000160691
1322635891914,0.000160756
1322635951914,0.000161616
1322636011914,0.000161099
1322636071914,0.000159518
1322639431925,0.000163906
1322639491925,0.000161703
1322639551925,0.000161856
1322639611925,0.000161542
1322639671925,0.000159234
1322643031936,0.000161502
1322643091936,0.000159969
1322643151936,0.000160511
1322643211936,0.000163723
1322643271936,0.000160072
1322646631947,0.000161645
1322646691947,0.000159600
1322646751947,0.000159471
1322646811947,0.000159950
1322646871947,0.000158963
1322650231958,0.000161569
1322650291958,0.000162704
1322650351959,0.000162760
1322650411959,0.000162389
1322650471959,0.000158967
1322653831970,0.000161847
1322653891970,0.000161793
1322653951970,0.000162290
1322654011970,0.000162504
1322654071970,0.000162884
1322657431982,0.000162881
1322657491982,0.000161272
1322657551982,0.000161402
1322657611982,0.000160783
1322657671982,0.000157057
1322661031994,0.000160221
1322661091994,0.000160777
1322661151994,0.000160445
1322661211994,0.000161630
1322661271994,0.000160313
1322664632006,0.000160617
1322664692006,0.000159797
1322664752006,0.000161593
1322664812006,0.000161188
1322664872006,0.000156810
1322668232018,0.000160164
1322668292018,0.000159479
1322668352018,0.000158821
1322668412018,0.000159605
1322668472018,0.000158948
1322671832030,0.000160925
1322671892030,0.000161276
1322671952030,0.000163323
1322672012030,0.000162602
1322672072030,0.000161307
1322675432041,0.000166539
1322675492041,0.000166399
1322675552041,0.000164483
1322675612041,0.000163550
1322675672041,0.000160973
1322679032053,0.000161930
1322679092053,0.000160052
1322679152053,0.000162525
1322679212053,0.000162968
1322679272053,0.000161958
1322682632064,0.000160919
1322682692064,0.000161309
1322682752064,0.000163727
1322682812064,0.000161017
1322682872064,0.000162162
1322682932064,0.000160876
1322682992064,0.000160950
1322683052064,0.000161211
1322683112064,0.000160349
1322683172064,0.000160590
1322683232075,0.000160058
1322683292075,0.000163096
1322683352075,0.000160960
1322683412075,0.000163229
1322683472075,0.000163298
1322683532075,0.000163768
1322683592075,0.000164665
1322683652075,0.000162335
1322683712075,0.000164635
1322683772075,0.000163589
1322683832075,0.000161908
1322683892075,0.000162516
1322683952075,0.000164179
1322684012075,0.000163876
1322684072075,0.000164606
1322684132075,0.000165370
1322684192075,0.000166149
1322684252075,0.000164418
1322684312075,0.000165236
1322684372075,0.000164608
1322684432075,0.000166139
1322684492075,0.000166548
1322684552075,0.000169306
1322684612075,0.000178830
1322684672075,0.000174667
1322684732075,0.000169908
1322684792075,0.000170071
1322684852075,0.000166777
1322684912075,0.000166432
1322684972075,0.000167288
1322685032075,0.000164541
1322685092075,0.000164874
1322685152075,0.000163298
1322685212075,0.000162367
1322685272075,0.000162438
1322685332075,0.000162215
1322685392075,0.000163127
1322685452075,0.000164980
1322685512075,0.000167053
1322685572075,0.000165419
1322685632075,0.000166254
1322685692075,0.000165848
1322685752075,0.000164377
1322685812075,0.000164866
1322685872075,0.000166923
1322685932075,0.000165912
1322685992075,0.000164439
1322686052075,0.000166546
1322686112075,0.000167035
1322686172075,0.000164096
1322686232075,0.000163972
1322686292075,0.000163452
1322686352075,0.000164006
1322686412075,0.000164885
1322686472075,0.000164935
1322686532075,0.000163236
1322686592075,0.000166345
1322686652075,0.000166884
1322686712075,0.000163264
1322686772075,0.000164254
1322686832086,0.000162887
1322686892086,0.000163640
1322686952086,0.000163787
1322687012086,0.000164029
1322687072086,0.000161558
1322687132086,0.000161309
1322687192086,0.000164097
1322687252086,0.000163806
1322687312086,0.000163523
1322687372086,0.000161324
1322687432086,0.000163083
1322687492086,0.000164007
1322687552086,0.000161168
1322687612086,0.000163612
1322687672086,0.000162268
1322687732086,0.000161279
1322687792086,0.000162155
1322687852086,0.000160837
1322687912086,0.000162643
1322687972086,0.000161333
1322688032086,0.000161928
1322688092086,0.000162500
1322688152086,0.000162559
1322688212086,0.000162065
1322688272086,0.000162420
1322688332086,0.000163521
1322688392086,0.000162484
1322688452086,0.000162763
1322688512086,0.000161022
1322688572086,0.000161394
1322688632086,0.000161575
1322688692086,0.000162227
1322688752086,0.000160987
1322688812086,0.000160975
1322688872086,0.000161118
1322688932086,0.000162521
1322688992086,0.000161186
1322689052086,0.000161908
1322689112086,0.000165624
1322689172086,0.000162801
1322689232086,0.000162910
1322689292086,0.000162890
1322689352086,0.000164065
1322689412086,0.000162605
1322689472086,0.000163609
1322689532086,0.000161900
1322689592086,0.000162549
1322689652086,0.000164033
1322689712086,0.000163697
1322689772086,0.000163841
1322689832086,0.000163818
1322689892086,0.000163162
1322689952086,0.000164056
1322690012086,0.000162535
1322690072086,0.000164484
1322690132086,0.000163686
1322690192086,0.000164140
1322690252086,0.000164258
1322690312086,0.000164687
1322690372086,0.000165494
1322690432097,0.000165775
1322690492097,0.000167618
1322690552097,0.000166868
1322690612097,0.000169215
1322690672097,0.000169664
1322690732097,0.000171132
1322690792097,0.000171901
1322690852097,0.000171035
1322690912097,0.000170636
1322690972097,0.000169059
1322691032097,0.000170595
1322691092097,0.000167666
1322691152097,0.000169810
1322691212097,0.000168169
1322691272097,0.000167605
1322691332097,0.000167722
1322691392097,0.000165662
1322691452097,0.000167083
1322691512097,0.000166332
1322691572097,0.000165751
1322691632097,0.000165636
1322691692097,0.000165289
1322691752097,0.000164794
1322691812097,0.000164436
1322691872097,0.000164211
1322691932097,0.000164360
1322691992097,0.000164422
1322692052097,0.000165189
1322692112097,0.000165470
1322692172097,0.000164080
1322692232097,0.000164577
1322692292097,0.000162777
1322692352097,0.000164009
1322692412097,0.000164193
1322692472097,0.000164147
1322692532097,0.000164039
1322692592097,0.000163088
1322692652097,0.000164105
1322692712097,0.000163308
1322692772097,0.000161546
1322692832097,0.000163049
1322692892097,0.000161218
1322692952097,0.000162947
1322693012097,0.000160671
1322693072097,0.000161352
1322693132097,0.000162211
1322693192097,0.000161788
1322693252097,0.000161558
1322693312097,0.000162637
1322693372097,0.000162187
1322693432097,0.000161266
1322693492097,0.000161350
1322693552097,0.000162498
1322693612097,0.000161339
1322693672097,0.000160576
1322697032107,0.000161038
1322697092107,0.000160604
1322697152107,0.000160877
1322697212107,0.000160223
1322697272107,0.000158472
